Simultaneous Nadir Overpasses (SNOs) Predictions

Prediction of SNOs between GOES-17 and LANDSAT-8 Satellite Orbit:

Table of predicted SNOs for the next 14.0 days since TLE Epoch: 12/1/2024
Index Date Time (GOES-17) GOES-17 Lat,Lon LANDSAT-8 Lat,Lon Distance(km) Time Diff (sec)
1 12/01/2024 05:01:08 -0.00,-104.68 0.42,-102.58 237.42 80
2 12/01/2024 17:22:24 -0.00,-104.71 0.64,-107.75 345.22 80
3 12/03/2024 17:10:11 -0.01,-104.70 0.03,-104.78 9.62 80
4 12/05/2024 17:00:38 -0.01,-104.70 -0.61,-101.82 326.91 80
5 12/06/2024 05:22:02 0.01,-104.66 -0.46,-107.01 266.67 80
6 12/08/2024 05:07:07 0.01,-104.66 0.11,-104.03 70.19 80
7 12/10/2024 04:54:53 0.01,-104.65 0.78,-101.07 407.24 80
8 12/10/2024 17:16:07 -0.01,-104.68 0.30,-106.23 176.01 80
9 12/12/2024 17:06:32 -0.01,-104.67 -0.30,-103.25 161.35 80
10 12/13/2024 05:27:54 0.01,-104.65 -0.80,-108.43 430.94 80
11 12/14/2024 16:54:16 -0.01,-104.66 -0.93,-100.27 498.77 80
